Regional Weather Roundup
Issued by NWS

Home | Current Version | Previous Version | Text Only | Print | Product List | Glossary Off
Versions: 1 2 3 4 5 6 7 8 9 10 11 12 13 14 15 16 17 18 19 20 21 22 23 24 25 26 27 28 29 30 31 32 33 34 35 36 37 38 39 40 41 42 43 44 45 46 47 48 49 50

000
ASUS43 KIND 011409
RWRIN

WEATHER ROUNDUP FOR INDIANA
NATIONAL WEATHER SERVICE INDIANAPOLIS IN
1000 AM EDT FRI AUG 01 2014

NOTE: "FAIR" INDICATES FEW OR NO CLOUDS BELOW 12,000 FEET WITH NO
SIGNIFICANT WEATHER AND/OR OBSTRUCTIONS TO VISIBILITY.

* - STATION DOES NOT REPORT WEATHER SUCH AS PRECIPITATION OR FOG.

+ - STATION NOT QUALITY CONTROLLED BY THE NATIONAL WEATHER SERVICE.
    USE DATA WITH CAUTION...ESPECIALLY DEWPOINT AND RELATIVE
    HUMIDITY OBSERVATIONS.

INZ001>003-010>013-019-020-011500-
NORTHWEST INDIANA

CITY           SKY/WX    TMP DP  RH WIND       PRES   REMARKS
GARY /AIRPORT/ PTSUNNY   72  63  73 W7        30.10S
KNOX *+        MOSUNNY   69  61  77 SW3       30.11S
LA PORTE +     MOSUNNY   68  65  90 CALM      30.12S
MICHIGAN CITY+ MOSUNNY   72  64  78 S3        30.10S
MONTICELLO +   MOSUNNY   67  62  84 CALM      30.12S
RENSSELAER +   PTSUNNY   68  64  88 S3        30.12S
VALPARAISO     MOSUNNY   70  62  76 SW5       30.11S

$$

LMZ046-743>745-011500-
SOUTHERN LAKE MICHIGAN

STATION/POSITION TIME  TEMP WIND        PRES
                       AIR  DIR/SP/G
                 (UTC) (F)  (DEG/KT/KT) (MB)
MICHIGAN CITY    1400   71  180/  5/  6   N/A

$$

INZ004-005-014>016-021>024-011500-
NORTH CENTRAL INDIANA

CITY           SKY/WX    TMP DP  RH WIND       PRES   REMARKS
GOSHEN         SUNNY     71  63  75 SW5       30.12R
LOGANSPORT +   MOSUNNY   68  61  77 S3        30.13S
PERU/GRISSOM   MOSUNNY   71  66  85 W2        30.13S
ROCHESTER +    MOSUNNY   73  61  64 W5        30.13S
SOUTH BEND     SUNNY     72  62  71 SW3       30.11S
WARSAW +       SUNNY     70  61  73 W5        30.12S

$$

INZ006>009-017-018-025>027-011500-
NORTHEAST INDIANA

CITY           SKY/WX    TMP DP  RH WIND       PRES   REMARKS
ANGOLA *+      SUNNY     72  63  73 SW3       30.12S
AUBURN +       SUNNY     72  61  68 W5        30.13S
FORT WAYNE     MOSUNNY   71  62  73 W3        30.14S
HUNTINGTON +   SUNNY     70  62  76 CALM      30.13S

$$

INZ028-029-035-036-043>045-051>053-011500-
WEST CENTRAL INDIANA

CITY           SKY/WX    TMP DP  RH WIND       PRES   REMARKS
GREENCASTLE +  SUNNY     70  63  78 CALM      30.13S
LAFAYETTE      MOSUNNY   68  61  78 CALM      30.12S
TERRE HAUTE    SUNNY     73  65  75 CALM      30.11F

$$

INZ030>032-037>040-046>048-054>057-064-065-011500-
CENTRAL INDIANA

CITY           SKY/WX    TMP DP  RH WIND       PRES   REMARKS
CP ATTERBURY + SUNNY     72  63  73 CALM      30.13S
COLUMBUS       SUNNY     68  64  88 CALM      30.13S
GREENWOOD *+   SUNNY     75  66  73 CALM      30.13
INDIANAPOLIS   MOSUNNY   74  62  66 CALM      30.12S
-EAGLE CREEK   SUNNY     72  61  68 SE6       30.12S
KOKOMO *+      MOSUNNY   70  63  78 CALM      30.13S
MARION +       SUNNY     69  62  78 CALM      30.14S
MT COMFORT *+  SUNNY     73  70  88 CALM      30.13S
SHELBYVILLE    SUNNY     73  64  73 CALM      30.12S
ZIONSVILLE +   SUNNY     72  63  72 CALM      30.14S

$$

INZ033-034-041-042-049-050-058-059-011500-
EAST CENTRAL INDIANA

CITY           SKY/WX    TMP DP  RH WIND       PRES   REMARKS
MUNCIE         SUNNY     72  62  71 CALM      30.14R

$$

INZ060-061-067>069-081>083-085>088-011500-
SOUTHWEST INDIANA

CITY           SKY/WX    TMP DP  RH WIND       PRES   REMARKS
EVANSVILLE     MOSUNNY   74  62  66 NE5       30.10S
WASHINGTON +   SUNNY     70  66  86 CALM      30.10S

$$

INZ062-063-066-070>080-084-089>092-011500-
SOUTH CENTRAL AND SOUTHEAST INDIANA

CITY           SKY/WX    TMP DP  RH WIND       PRES   REMARKS
BLOOMINGTON    SUNNY     75  63  66 CALM      30.12S

$$



USA.gov is the U.S. government's official web portal to all federal, state and local government web resources and services.